Simultaneous Nadir Overpasses (SNOs) Predictions

Prediction of SNOs between AQUA and GOES-15 Satellite Orbit:

Table of predicted SNOs for the next 14.0 days since TLE Epoch: 4/17/2015
Index Date Time (AQUA) AQUA Lat,Lon GOES-15 Lat,Lon Distance(km) Time Diff (sec)
1 04/17/2015 10:20:50 -0.79,-131.20 0.05,-135.17 451.76 80
2 04/17/2015 22:42:15 -0.30,-136.40 -0.05,-135.16 140.27 80
3 04/19/2015 22:30:04 0.34,-133.45 -0.05,-135.21 201.30 80
4 04/20/2015 10:51:18 0.77,-138.60 0.05,-135.26 380.38 80
5 04/22/2015 10:39:06 0.15,-135.64 0.06,-135.30 38.81 80
6 04/24/2015 10:26:52 -0.49,-132.67 0.06,-135.34 303.26 80
7 04/24/2015 22:48:15 -0.57,-137.87 -0.06,-135.32 288.92 80
8 04/26/2015 22:35:59 0.06,-134.90 -0.06,-135.36 53.58 80
9 04/28/2015 22:23:41 0.66,-131.91 -0.07,-135.40 396.19 80
10 04/29/2015 10:44:55 0.42,-137.06 0.07,-135.44 185.07 80




NCC Satellite Simultaneous Nadir Overpasses (SNOs) Prediction Service
